sat.trackr.live / text

‹ back to catalog

STARLINK-5815

NORAD 55789 · 2023-028BA

PAYLOAD ACTIVE UNKNOWN

§ Identity

Operator
Country
US
Launch date
2023-03-03
Launch site
AFWTR
Launch vehicle
Mass (kg)
RCS (m²)

Purposes: comms

External: N2YO · Heavens-Above · Gunter

§ Orbital elements

Epoch: 2026-09-20T22:00:03.000096Z

Period
95.64 min
Inclination
70.0030°
Eccentricity
0.0004685
Mean motion
15.05597027 rev/d
Perigee alt
546.4 km
Apogee alt
552.9 km
Semi-major
6,927.8 km
B*
5.0089e-3
RAAN
72.1090°
Arg perigee
301.8918°
Mean anomaly
7.7516°
Rev number
571

§ Raw data

STARLINK-58151 55789U 23028BA  26263.91670139  .00073031  00000+0  50089-2 0  99912 55789  70.0030  72.1090 0004685 301.8918   7.7516 15.05597027  5718

JSON: /api/v1/satellites/55789 · /tle

For live sub-satellite position, see the globe view (requires WebGL).

§ Visibility from observer

Set your observer location to see the next 7 days of passes ≥ 10°. The values pass through the URL so the page stays shareable.

No JS? Fill the form by hand. The geolocation button needs JavaScript.